Lid_Strength_Index
10 9 8 9 10 9 10 9 11 12 10 9 8 7 6 6 5 5 6 5 5 5 4 4 3 3 3 2 2 2 2 2 2 2 2 1 2 2 1 1 3 4 4 3
11 8 9 9 8 9 9 9 9 9 10 6 6 6 6 6 6 6 5 5 5 4 4 4 4 3 3 3 2 2 2 2 2 2 2 1 2 2 1 1 2 3 4 4
13 9 9 12 10 10 9 9 9 11 9 6 7 6 6 6 6 5 5 5 4 4 4 4 3 3 3 3 2 2 2 2 2 2 2 1 1 1 3 4 4 4 3 3
12 11 15 10 8 7 8 7 8 8 7 6 6 6 5 5 5 5 5 4 4 4 3 3 3 2 2 2 2 2 3 2 2 2 2 2 3 3 2 3 2 2 2 2
13 13 11 9 7 7 9 9 7 7 6 6 6 5 6 4 4 4 4 4 3 3 3 3 4 2 2 3 2 2 3 2 2 2 2 3 3 3 2 2 2 2 1 1
12 14 15 10 7 6 7 12 6 6 6 7 6 10 9 5 4 4 4 4 4 3 3 3 4 3 3 3 3 3 2 2 2 2 2 2 2 2 1 3 3 1 2 1
12 13 11 8 6 6 12 12 6 5 6 6 8 7 5 4 4 3 3 3 3 3 3 3 2 3 3 4 3 2 2 2 1 1 1 1 2 2 2 2 3 3 3 1
12 13 15 6 7 10 8 7 5 5 5 6 5 5 4 4 4 4 4 3 3 3 4 3 2 2 3 3 2 2 2 2 2 2 1 1 2 2 2 2 2 2 2 2
11 12 7 6 7 6 5 6 6 6 5 4 5 5 4 4 4 4 4 3 3 3 3 3 2 2 3 3 2 2 2 2 2 2 2 1 2 2 2 2 2 3 3 3
10 8 7 6 5 4 5 5 4 4 4 4 5 4 5 4 4 4 3 3 3 3 4 4 3 2 2 2 2 2 2 2 2 2 2 2 2 2 2 2 2 3 3 3
10 7 6 5 4 5 4 4 4 4 4 4 4 4 4 5 4 4 4 3 3 4 4 3 3 2 2 2 2 2 2 2 2 2 2 2 2 2 2 1 2 2 2 2
10 7 7 6 5 4 4 4 4 4 4 4 4 4 4 4 4 4 4 3 4 3 3 3 3 2 2 2 2 2 3 3 3 3 2 2 2 2 4 6 7 7 8 5
7 5 5 5 4 3 4 4 3 4 4 4 4 4 4 4 4 4 4 4 4 4 3 3 3 3 2 1 1 2 3 3 3 3 2 2 2 3 3 2 6 9 9 9
4 4 5 5 5 4 3 3 3 3 3 3 3 3 4 4 4 4 4 3 3 3 3 3 3 3 2 1 2 2 2 4 2 2 2 2 2 2 2 3 3 3 4 7
4 4 4 4 4 4 3 3 4 4 4 4 3 3 3 4 4 4 3 3 3 3 3 3 3 3 2 1 2 2 2 2 2 2 2 2 2 2 2 2 2 3 2 4
4 4 4 4 4 4 4 4 5 5 4 4 4 4 4 4 4 4 3 3 4 4 3 3 3 2 2 2 2 2 2 2 2 2 2 2 2 2 3 3 3 3 3 2
6 6 6 5 5 4 5 4 4 4 4 5 4 3 3 4 4 4 3 3 3 3 3 3 2 2 2 2 2 2 2 2 2 2 2 2 2 3 2 3 3 3 2 2
4 4 4 4 5 5 4 4 4 4 4 4 3 4 4 4 5 4 3 3 3 3 3 3 2 2 1 1 2 1 2 2 2 2 2 2 2 2 2 3 3 3 3 2
3 4 3 3 4 4 5 5 4 3 3 3 4 4 4 4 4 3 3 3 4 4 3 2 1 1 4 3 2 3 3 4 3 3 3 3 2 2 2 2 3 2 2 2
4 3 3 3 3 3 4 3 3 3 3 3 4 4 4 4 3 3 3 4 3 3 2 2 2 3 4 4 3 4 5 5 5 5 5 6 6 6 5 6 4 3 2 2
4 3 3 3 3 3 3 3 3 4 3 3 4 4 4 3 3 3 4 4 3 2 3 2 3 4 4 3 4 5 5 7 7 8 9 9 9 8 8 8 7 6 5 3
4 4 3 3 3 4 3 3 3 3 3 3 3 3 4 4 3 3 3 3 2 3 3 3 4 3 4 3 6 7 8 8 9 8 8 8 9 9 9 9 8 8 7 5
4 4 3 4 4 4 3 3 3 3 3 3 4 3 4 3 3 4 4 2 2 4 3 4 4 4 5 6 7 8 8 8 8 8 8 7 8 8 9 8 8 7 6 6
3 3 3 3 3 3 4 3 3 3 3 3 3 3 3 4 3 2 2 3 4 3 4 4 4 5 6 7 8 9 9 8 9 9 7 8 7 8 8 8 7 6 6 9
3 3 3 3 4 4 4 3 3 3 3 3 3 2 2 2 3 2 2 2 3 3 4 4 5 6 6 7 7 8 8 8 9 8 8 9 9 9 8 8 8 8 8 8
4 4 3 3 3 3 3 3 4 3 3 3 3 2 2 2 2 2 2 2 4 4 6 6 6 7 7 7 7 8 8 9 9 8 9 9 9 10 10 9 9 9 9 10
3 4 3 3 3 3 3 3 3 4 3 3 3 2 2 2 2 2 3 2 5 6 6 7 6 7 7 8 7 7 8 8 9 9 9 8 9 9 9 9 9 8 9 9